1505988000.38,1614,14.06,73084.5,-2.97,-3.71,-3.71,0,*6E
1505988001.64,1615,14.06,73090.8,-2.97,-3.63,-3.71,0,*6C
1505988002.9,1616,14.06,73106.0,-2.97,-3.63,-3.71,0,*6F
1505988004.16,1617,14.06,73092.8,-2.97,-3.71,-3.71,0,*6D
1505988005.42,1618,14.06,73088.8,-2.97,-3.71,-3.71,0,*62
1505988006.66,1619,14.06,73088.5,-2.97,-3.71,-3.75,0,*67
1505988007.92,1620,14.06,73088.3,-2.97,-3.71,-3.71,0,*69
1505988009.16,1621,14.06,73080.5,-2.97,-3.75,-3.71,0,*6C
1505988010.38,1622,14.06,73090.8,-2.97,-3.75,-3.75,0,*6B
1505988011.61,1623,14.06,73086.3,-2.97,-3.75,-3.75,0,*6A
1505988012.84,1624,14.06,73088.8,-2.97,-3.75,-3.75,0,*6D
1505988014.05,1625,14.06,73082.0,-2.95,-3.71,-3.75,0,*6A
1505988015.26,1626,14.06,73078.5,-2.91,-3.75,-3.83,0,*60
1505988016.48,1627,14.06,73080.3,-2.97,-3.79,-3.79,0,*6E
1505988017.68,1628,14.06,73082.8,-2.95,-3.75,-3.83,0,*6A
1505988018.88,1629,14.06,73074.5,-2.95,-3.75,-3.75,0,*62
1505988020.11,1630,14.06,73088.5,-2.97,-3.79,-3.79,0,*68
1505988021.33,1631,14.06,73078.3,-2.97,-3.75,-3.79,0,*65
1505988022.56,1632,14.06,73080.5,-2.97,-3.75,-3.75,0,*6A
1505988023.78,1633,14.06,73076.5,-2.97,-3.79,-3.87,0,*6A
1505988024.98,1634,14.06,73078.5,-2.99,-3.79,-3.87,0,*63
1505988026.2,1635,14.06,73080.3,-2.97,-3.87,-3.79,0,*6C
1505988027.42,1636,14.06,73084.3,-2.97,-3.79,-3.79,0,*6E
1505988028.65,1637,14.06,73090.3,-2.97,-3.79,-3.79,0,*6F
1505988029.87,1638,14.06,73086.3,-2.97,-3.75,-3.79,0,*6C
1505988031.1,1639,14.06,73080.5,-2.97,-3.75,-3.75,0,*61
1505988032.32,1640,14.06,73092.0,-2.97,-3.79,-3.79,0,*6F
1505988033.55,1641,14.06,73088.0,-2.97,-3.79,-3.79,0,*6E
1505988034.76,1642,14.06,73090.5,-2.97,-3.87,-3.87,0,*6D
1505988035.98,1643,14.06,73098.5,-2.97,-3.87,-3.87,0,*6C
1505988037.2,1644,14.06,73084.3,-2.97,-3.79,-3.87,0,*6A
1505988038.42,1645,14.06,73096.0,-2.97,-3.79,-3.79,0,*6A
1505988039.65,1646,14.06,73094.3,-2.97,-3.79,-3.75,0,*65
1505988040.87,1647,14.06,73098.3,-2.97,-3.79,-3.79,0,*68
1505988042.1,1648,14.06,73104.8,-2.97,-3.79,-3.79,0,*67
1505988043.32,1649,14.06,73092.8,-2.97,-3.79,-3.87,0,*67
1505988044.51,1650,14.06,73098.5,-2.99,-3.87,-3.79,0,*61
1505988045.71,1651,14.06,73104.0,-2.99,-3.79,-3.79,0,*61
1505988046.92,1652,14.06,73104.3,-2.99,-3.79,-3.79,0,*62
1505988048.12,1653,14.06,73098.3,-2.99,-3.79,-3.79,0,*63
1505988049.31,1654,14.06,73100.3,-2.99,-3.87,-3.79,0,*65
1505988050.51,1655,14.06,73110.0,-2.99,-3.79,-3.79,0,*65
1505988051.74,1656,14.06,73104.0,-2.97,-3.75,-3.79,0,*64
1505988052.96,1657,14.06,73106.3,-2.97,-3.75,-3.79,0,*65
1505988054.19,1658,14.06,73106.3,-2.97,-3.75,-3.79,0,*6A
1505988055.39,1659,14.06,73108.3,-2.99,-3.75,-3.79,0,*65
1505988056.62,1660,14.06,73110.0,-2.97,-3.75,-3.79,0,*61
1505988057.84,1661,14.06,73114.5,-2.97,-3.75,-3.75,0,*6C
1505988059.07,1662,14.06,73106.0,-2.97,-3.75,-3.75,0,*6F
1505988060.29,1663,14.06,73112.8,-2.97,-3.75,-3.79,0,*62
1505988061.51,1664,14.06,73106.0,-2.99,-3.71,-3.79,0,*6F
1505988062.74,1665,14.06,73102.8,-2.99,-3.71,-3.71,0,*66
1505988063.97,1666,14.06,73096.8,-2.99,-3.63,-3.75,0,*62
1505988065.2,1667,14.06,73118.3,-2.99,-3.71,-3.71,0,*64
1505988066.46,1668,14.06,73098.3,-2.97,-3.71,-3.71,0,*65
1505988067.7,1669,14.06,73088.0,-2.97,-3.71,-3.75,0,*60
1505988068.94,1670,14.06,73088.3,-2.97,-3.75,-3.71,0,*68
1505988070.16,1671,14.06,73076.5,-2.99,-3.71,-3.75,0,*67
1505988071.4,1672,14.06,73102.5,-2.97,-3.75,-3.71,0,*6A
1505988072.62,1673,14.06,73088.8,-2.99,-3.71,-3.75,0,*65
1505988073.86,1674,14.06,73082.8,-2.97,-3.75,-3.71,0,*6C
1505988075.11,1675,14.06,73098.0,-2.97,-3.71,-3.71,0,*69
1505988076.34,1676,14.06,73100.5,-2.97,-3.75,-3.75,0,*6A
1505988077.57,1677,14.06,73108.3,-2.97,-3.75,-3.75,0,*6B
1505988078.79,1678,14.06,73100.0,-2.97,-3.75,-3.75,0,*64
1505988080.02,1679,14.06,73104.5,-2.97,-3.79,-3.75,0,*69
1505988081.22,1680,14.06,73114.3,-2.99,-3.75,-3.75,0,*6D
1505988082.44,1681,14.06,73102.0,-2.97,-3.75,-3.75,0,*62
1505988083.67,1682,14.06,73108.3,-2.97,-3.75,-3.75,0,*61
1505988084.9,1683,14.06,73110.5,-2.97,-3.75,-3.75,0,*60
1505988086.12,1684,14.06,73116.5,-2.97,-3.75,-3.79,0,*6B
1505988087.32,1685,14.06,73120.5,-2.99,-3.75,-3.79,0,*64
1505988088.52,1686,14.06,73114.0,-2.99,-3.75,-3.75,0,*6B
1505988089.77,1687,14.06,73118.3,-2.97,-3.75,-3.71,0,*60
1505988091.02,1688,14.06,73118.0,-2.97,-3.71,-3.71,0,*6B
1505988092.26,1689,14.06,73120.0,-2.99,-3.71,-3.71,0,*64
1505988093.49,1690,14.06,73122.3,-2.99,-3.71,-3.63,0,*6F
1505988094.76,1691,14.06,73110.8,-2.97,-3.63,-3.59,0,*6A
1505988096.0,1692,14.06,73108.8,-2.99,-3.63,-3.59,0,*67
1505988097.26,1693,14.06,73110.5,-2.97,-3.63,-3.63,0,*61
1505988098.53,1694,14.06,73114.3,-2.97,-3.63,-3.59,0,*6F
1505988099.79,1695,14.06,73114.8,-2.97,-3.59,-3.63,0,*6E
1505988101.06,1696,14.06,73108.5,-2.97,-3.59,-3.59,0,*64
1505988102.32,1697,14.06,73106.5,-2.97,-3.63,-3.63,0,*65
1505988103.58,1698,14.06,73106.5,-2.97,-3.63,-3.63,0,*6A
1505988104.85,1699,14.06,73110.8,-2.97,-3.63,-3.59,0,*62
1505988106.1,1700,14.06,73106.5,-2.97,-3.71,-3.63,0,*69
1505988107.37,1701,14.06,73122.8,-2.97,-3.63,-3.63,0,*6B
1505988108.63,1702,14.06,73116.5,-2.97,-3.71,-3.59,0,*62
1505988109.87,1703,14.06,73116.3,-2.95,-3.63,-3.55,0,*6E
1505988111.13,1704,14.06,73112.8,-2.97,-3.59,-3.71,0,*64
1505988112.4,1705,14.06,73110.5,-2.97,-3.59,-3.59,0,*6F
1505988113.66,1706,14.06,73098.8,-2.97,-3.63,-3.59,0,*65
1505988114.92,1707,14.06,73098.3,-2.97,-3.63,-3.63,0,*6D
1505988116.16,1708,14.06,73090.8,-2.95,-3.59,-3.67,0,*6D
1505988117.4,1709,14.06,73086.8,-2.95,-3.59,-3.67,0,*6C
1505988118.63,1710,14.06,73090.0,-2.95,-3.71,-3.67,0,*6E
1505988119.87,1711,14.06,73088.8,-2.91,-3.67,-3.71,0,*6B
1505988121.11,1712,14.06,73098.3,-2.95,-3.71,-3.71,0,*6B
1505988122.34,1713,14.06,73094.8,-2.95,-3.71,-3.71,0,*6A
1505988123.54,1714,14.06,73108.3,-2.95,-3.75,-3.75,0,*6D
1505988124.74,1715,14.06,73114.0,-2.95,-3.83,-3.83,0,*6C
1505988125.93,1716,14.06,73126.3,-2.95,-3.87,-3.87,0,*6F
1505988127.16,1717,14.06,73116.0,-2.97,-3.79,-3.79,0,*6C
1505988128.36,1718,14.06,73100.0,-2.95,-3.83,-3.83,0,*61
1505988129.58,1719,14.06,73090.0,-2.97,-3.79,-3.87,0,*63
1505988130.8,1720,14.06,73104.5,-2.97,-3.79,-3.79,0,*68
1505988132.02,1721,14.06,73088.5,-2.97,-3.87,-3.87,0,*69
1505988133.27,1722,14.06,73080.8,-2.97,-4.01,-3.91,0,*64
1505988134.49,1723,14.06,73068.3,-2.99,-4.01,-3.91,0,*6B
1505988135.72,1724,14.06,73054.0,-2.97,-3.91,-3.91,0,*6C
1505988136.92,1725,14.06,73078.8,-2.99,-3.91,-3.91,0,*63
1505988138.14,1726,14.06,73068.8,-2.97,-3.87,-3.87,0,*6E
1505988139.33,1727,14.06,73092.8,-2.99,-3.87,-3.91,0,*66
1505988140.58,1728,14.06,73086.0,-2.97,-4.01,-3.91,0,*6E
1505988141.83,1729,14.06,73090.8,-2.97,-4.01,-3.91,0,*6F
1505988143.03,1730,14.06,73078.3,-2.99,-3.91,-3.87,0,*60
1505988144.28,1731,14.06,73076.8,-2.99,-4.01,-4.01,0,*66
1505988145.55,1732,14.06,73084.3,-2.97,-4.01,-4.01,0,*6B
1505988146.77,1733,14.06,73090.0,-2.99,-3.91,-4.01,0,*6A
1505988147.98,1734,14.06,73098.8,-2.99,-3.91,-3.91,0,*63
1505988149.18,1735,14.06,73078.3,-2.99,-3.91,-3.91,0,*62
1505988150.41,1736,14.06,73050.8,-2.99,-3.91,-4.01,0,*6F
1505988151.63,1737,14.06,73070.8,-2.99,-3.91,-4.01,0,*6E
1505988152.85,1738,14.06,73042.3,-3.01,-4.09,-4.09,0,*6F
1505988154.04,1739,14.06,73056.0,-3.03,-4.05,-4.05,0,*6C
1505988155.27,1740,14.06,73050.3,-3.01,-3.95,-4.05,0,*6E
1505988156.49,1741,14.06,73084.3,-3.01,-3.95,-3.95,0,*61
1505988157.71,1742,14.06,73062.8,-3.01,-4.09,-4.09,0,*62
1505988158.93,1743,14.06,73076.0,-3.01,-4.09,-4.05,0,*6F
1505988160.15,1744,14.06,73084.5,-3.01,-4.09,-4.05,0,*68
1505988161.36,1745,14.06,73084.8,-3.01,-4.05,-3.95,0,*6B
1505988162.56,1746,14.06,73086.8,-3.03,-3.95,-3.95,0,*64
1505988163.76,1747,14.06,73092.8,-3.03,-3.95,-3.95,0,*65
1505988164.99,1748,14.06,73098.0,-3.01,-3.91,-3.95,0,*6C
1505988166.19,1749,14.06,73096.0,-3.03,-3.91,-3.83,0,*68
1505988167.42,1750,14.06,73096.0,-3.01,-3.91,-3.91,0,*61
1505988168.65,1751,14.06,73098.3,-3.01,-3.91,-3.91,0,*60
1505988169.85,1752,14.06,73102.0,-3.03,-3.83,-3.91,0,*62
1505988171.08,1753,14.06,73100.5,-3.01,-3.91,-3.91,0,*62
1505988172.31,1754,14.06,73096.3,-3.01,-3.95,-3.91,0,*61
1505988173.51,1755,14.06,73096.8,-3.03,-3.91,-3.91,0,*66
1505988174.71,1756,14.06,73102.5,-3.03,-3.83,-3.91,0,*66
1505988175.91,1757,14.06,73112.0,-3.03,-3.83,-3.83,0,*64
1505988177.12,1758,14.06,73110.0,-3.03,-3.83,-3.91,0,*68
1505988178.32,1759,14.06,73118.3,-3.03,-3.91,-3.91,0,*6A
1505988179.52,1760,14.06,73110.0,-3.03,-3.91,-3.83,0,*63
1505988180.75,1761,14.06,73106.3,-3.01,-3.83,-3.91,0,*60
1505988181.95,1762,14.06,73114.0,-3.03,-3.83,-3.83,0,*62
1505988183.15,1763,14.06,73110.3,-3.03,-3.79,-3.83,0,*66
1505988184.35,1764,14.06,73102.5,-3.03,-3.75,-3.79,0,*68
1505988185.58,1765,14.06,73110.0,-3.01,-3.79,-3.79,0,*67
1505988186.81,1766,14.06,73102.8,-3.01,-3.83,-3.79,0,*61
1505988188.04,1767,14.06,73104.0,-3.01,-3.91,-3.79,0,*63
1505988189.24,1768,14.06,73100.8,-3.03,-3.83,-3.79,0,*6D
1505988190.44,1769,14.06,73092.0,-3.03,-3.79,-3.79,0,*69
1505988191.67,1770,14.06,73088.8,-3.01,-3.79,-3.79,0,*63
1505988192.87,1771,14.06,73102.5,-3.03,-3.75,-3.75,0,*60
1505988194.1,1772,14.06,73100.8,-3.01,-3.75,-3.79,0,*6D
1505988195.33,1773,14.06,73104.8,-3.01,-3.75,-3.79,0,*6C
1505988196.57,1774,14.06,73100.5,-3.01,-3.67,-3.75,0,*64
1505988197.82,1775,14.06,73106.8,-3.01,-3.67,-3.75,0,*65
1505988199.05,1776,14.06,73102.8,-3.01,-3.75,-3.79,0,*69
1505988200.28,1777,14.06,73108.3,-3.01,-3.75,-3.75,0,*64
1505988201.54,1778,14.06,73110.3,-3.01,-3.63,-3.63,0,*6B
1505988202.81,1779,14.06,73112.0,-3.01,-3.63,-3.63,0,*6A
1505988204.07,1780,14.06,73104.8,-3.01,-3.63,-3.63,0,*6C
1505988205.33,1781,14.06,73106.0,-3.01,-3.67,-3.67,0,*6D
1505988206.56,1782,14.06,73092.5,-3.01,-3.79,-3.75,0,*62
1505988207.79,1783,14.06,73098.5,-3.01,-3.79,-3.75,0,*63
1505988209.04,1784,14.06,73102.3,-3.01,-3.75,-3.67,0,*6B
1505988210.26,1785,14.06,73094.3,-3.01,-3.75,-3.75,0,*69
1505988211.49,1786,14.06,73108.5,-3.01,-3.79,-3.79,0,*6A
1505988212.72,1787,14.06,73124.0,-3.01,-3.75,-3.75,0,*6B
1505988213.95,1788,14.06,73102.0,-3.01,-3.75,-3.75,0,*64
1505988215.17,1789,14.06,73118.0,-2.99,-3.75,-3.71,0,*61
1505988216.37,1790,14.06,73096.5,-2.99,-3.75,-3.75,0,*6D
1505988217.59,1791,14.06,73100.5,-2.99,-3.71,-3.75,0,*68
1505988218.81,1792,14.06,73104.5,-2.99,-3.75,-3.71,0,*6B
1505988220.01,1793,14.06,73102.5,-2.99,-3.75,-3.75,0,*6E
1505988221.21,1794,14.06,73110.0,-2.99,-3.75,-3.75,0,*69
1505988222.44,1795,14.06,73102.0,-3.01,-3.75,-3.75,0,*68
1505988223.67,1796,14.06,73100.0,-3.01,-3.79,-3.79,0,*6B
1505988224.9,1797,14.06,73096.5,-3.01,-3.79,-3.79,0,*6A
1505988226.13,1798,14.06,73098.0,-3.01,-3.79,-3.79,0,*65
1505988227.36,1799,14.06,73098.8,-3.01,-3.79,-3.75,0,*68
1505988228.58,1800,14.06,73106.3,-3.01,-3.75,-3.79,0,*67
1505988229.81,1801,14.06,73104.5,-3.01,-3.75,-3.79,0,*66
1505988231.04,1802,14.06,73102.3,-3.01,-3.79,-3.79,0,*69
1505988232.27,1803,14.06,73090.5,-2.99,-3.71,-3.71,0,*68
1505988233.48,1804,14.06,73106.8,-2.99,-3.75,-3.75,0,*6F
1505988234.68,1805,14.06,73108.8,-2.99,-3.75,-3.75,0,*6E
1505988235.9,1806,14.06,73118.0,-2.99,-3.75,-3.71,0,*69
1505988237.13,1807,14.06,73100.3,-2.99,-3.59,-3.71,0,*66
1505988238.36,1808,14.06,73112.5,-3.01,-3.75,-3.75,0,*63
1505988239.61,1809,14.06,73104.3,-3.01,-3.67,-3.79,0,*6D
1505988240.84,1810,14.06,73106.5,-3.01,-3.75,-3.75,0,*6A
1505988242.06,1811,14.06,73110.3,-2.99,-3.75,-3.71,0,*6F
1505988243.29,1812,14.06,73110.8,-2.99,-3.71,-3.71,0,*68
1505988244.52,1813,14.06,73096.3,-2.99,-3.71,-3.63,0,*6A
1505988245.75,1814,14.06,73106.0,-3.01,-3.79,-3.79,0,*6E
1505988246.98,1815,14.06,73106.0,-3.01,-3.79,-3.79,0,*6F
1505988248.18,1816,14.06,73102.5,-2.99,-3.75,-3.75,0,*6C
1505988249.42,1817,14.06,73104.0,-2.99,-3.71,-3.71,0,*6D
1505988250.63,1818,14.06,73106.8,-2.99,-3.75,-3.71,0,*66
1505988251.84,1819,14.06,73104.8,-2.99,-3.75,-3.75,0,*63
1505988253.07,1820,14.06,73104.8,-2.99,-3.71,-3.71,0,*69
1505988254.31,1821,14.06,73108.8,-2.99,-3.63,-3.71,0,*6B
1505988255.54,1822,14.06,73110.3,-2.99,-3.71,-3.63,0,*68
1505988256.77,1823,14.06,73104.8,-2.99,-3.71,-3.71,0,*6A
1505988257.99,1824,14.06,73116.8,-2.99,-3.75,-3.71,0,*69
1505988259.22,1825,14.06,73110.8,-2.97,-3.75,-3.75,0,*62
1505988260.44,1826,14.06,73106.8,-2.99,-3.75,-3.71,0,*6B
1505988261.66,1827,14.06,73124.5,-3.01,-3.79,-3.79,0,*6E
1505988262.89,1828,14.06,73120.0,-3.01,-3.75,-3.79,0,*6D
1505988264.1,1829,14.06,73098.3,-2.99,-3.75,-3.75,0,*60
1505988265.3,1830,14.06,73104.8,-2.99,-3.75,-3.75,0,*68
1505988266.52,1831,14.06,73098.3,-2.97,-3.75,-3.75,0,*67
1505988267.73,1832,14.06,73114.3,-2.99,-3.75,-3.75,0,*6A
1505988268.96,1833,14.06,73118.3,-2.99,-3.71,-3.71,0,*6B
1505988270.19,1834,14.06,73114.0,-2.99,-3.71,-3.71,0,*6C
1505988271.43,1835,14.06,73108.0,-2.99,-3.71,-3.71,0,*6D
1505988272.64,1836,14.06,73118.8,-2.99,-3.75,-3.71,0,*6A
1505988273.85,1837,14.06,73110.3,-2.99,-3.75,-3.75,0,*6F
1505988275.05,1838,14.06,73106.8,-2.99,-3.75,-3.75,0,*60
1505988276.28,1839,14.06,73112.5,-2.97,-3.75,-3.75,0,*6F
1505988277.5,1840,14.06,73110.5,-3.01,-3.75,-3.79,0,*63
1505988278.74,1841,14.06,73108.8,-2.97,-3.71,-3.75,0,*64
1505988279.99,1842,14.06,73114.5,-2.97,-3.71,-3.75,0,*67
1505988281.22,1843,14.06,73108.3,-2.99,-3.71,-3.71,0,*6C
1505988282.44,1844,14.06,73108.0,-2.99,-3.71,-3.75,0,*6F
1505988283.66,1845,14.06,73110.3,-2.99,-3.75,-3.71,0,*6E
1505988284.89,1846,14.06,73108.3,-2.99,-3.63,-3.71,0,*6A
1505988286.13,1847,14.06,73108.8,-2.99,-3.63,-3.71,0,*6B
1505988287.37,1848,14.06,73114.8,-2.99,-3.63,-3.71,0,*64
1505988288.59,1849,14.06,73114.5,-2.99,-3.75,-3.71,0,*62
1505988289.8,1850,14.06,73106.5,-2.99,-3.75,-3.71,0,*6A
1505988291.02,1851,14.06,73100.3,-2.99,-3.71,-3.75,0,*6B
1505988292.22,1852,14.06,73108.5,-2.99,-3.75,-3.75,0,*6C
1505988293.45,1853,14.06,73106.0,-2.97,-3.75,-3.75,0,*63
1505988294.67,1854,14.06,73110.0,-2.99,-3.75,-3.71,0,*6E
1505988295.9,1855,14.06,73116.5,-2.99,-3.71,-3.71,0,*6B
1505988297.1,1856,14.06,73100.8,-2.99,-3.75,-3.75,0,*68
1505988298.31,1857,14.06,73104.3,-2.99,-3.75,-3.75,0,*69
1505988299.51,1858,14.06,73102.3,-2.99,-3.75,-3.75,0,*66
1505988300.74,1859,14.06,73102.5,-3.01,-3.83,-3.79,0,*62
1505988301.95,1860,14.06,73102.5,-2.99,-3.71,-3.75,0,*69
1505988303.16,1861,14.06,73094.8,-2.99,-3.75,-3.75,0,*6C
1505988304.36,1862,14.06,73102.0,-2.99,-3.75,-3.75,0,*6F
1505988305.56,1863,14.06,73106.3,-2.99,-3.75,-3.75,0,*6E
1505988306.79,1864,14.06,73100.0,-2.99,-3.71,-3.71,0,*69
1505988308.01,1865,14.06,73092.5,-2.99,-3.71,-3.75,0,*6C
1505988309.25,1866,14.06,73090.5,-2.99,-3.71,-3.71,0,*6B
1505988310.45,1867,14.06,73100.0,-2.99,-3.75,-3.75,0,*6A
1505988311.68,1868,14.06,73096.3,-3.01,-3.79,-3.79,0,*65
1505988312.9,1869,14.06,73090.3,-3.01,-3.75,-3.79,0,*68
1505988314.13,1870,14.06,73088.8,-3.01,-3.75,-3.79,0,*60
1505988315.36,1871,14.06,73092.8,-3.01,-3.79,-3.75,0,*61
1505988316.59,1872,14.06,73098.3,-3.01,-3.75,-3.79,0,*62
1505988317.81,1873,14.06,73094.3,-2.99,-3.75,-3.71,0,*6B
1505988319.01,1874,14.06,73088.8,-2.99,-3.75,-3.75,0,*68
1505988320.21,1875,14.06,73086.8,-2.99,-3.75,-3.75,0,*69
1505988321.42,1876,14.06,73094.8,-2.99,-3.75,-3.75,0,*6A
1505988322.62,1877,14.06,73098.5,-2.99,-3.75,-3.79,0,*67
1505988323.81,1878,14.06,73078.5,-2.99,-3.87,-3.87,0,*64
1505988325.04,1879,14.06,73092.0,-2.99,-3.91,-4.01,0,*6B
1505988326.26,1880,14.06,73096.3,-2.99,-3.91,-4.01,0,*6D
1505988327.49,1881,14.06,73094.3,-2.99,-3.91,-4.01,0,*6C
1505988328.69,1882,14.06,73104.3,-3.03,-3.91,-4.05,0,*69
1505988329.91,1883,14.06,73102.0,-3.01,-3.95,-3.95,0,*60
1505988331.14,1884,14.06,73090.8,-3.01,-3.91,-3.91,0,*67
1505988332.37,1885,14.06,73092.0,-3.01,-3.95,-3.91,0,*62
1505988333.57,1886,14.06,73092.8,-3.03,-3.91,-3.83,0,*64
1505988334.79,1887,14.06,73092.5,-3.01,-3.95,-3.95,0,*64
1505988336.02,1888,14.06,73090.0,-3.01,-3.95,-3.91,0,*6F
1505988337.24,1889,14.06,73092.3,-3.01,-4.05,-3.95,0,*64
1505988338.43,1890,14.06,73094.0,-3.03,-3.95,-3.95,0,*60
1505988339.64,1891,14.06,73096.3,-3.03,-3.95,-3.91,0,*65
1505988340.83,1892,14.06,73096.0,-3.03,-3.95,-3.95,0,*62
1505988342.02,1893,14.06,73098.0,-3.03,-4.05,-3.95,0,*6D
1505988343.22,1894,14.06,73090.5,-3.03,-3.95,-4.05,0,*6A
1505988344.43,1895,14.06,73088.3,-3.03,-3.91,-3.91,0,*65
1505988345.65,1896,14.06,73102.3,-3.01,-3.83,-3.83,0,*64
1505988346.88,1897,14.06,73108.3,-3.01,-3.83,-3.83,0,*65
1505988348.08,1898,14.06,73078.5,-3.03,-3.83,-3.83,0,*68
1505988349.28,1899,14.06,73086.8,-3.03,-3.83,-3.83,0,*69
1505988350.5,1900,14.06,73088.3,-3.01,-3.91,-3.83,0,*69
1505988351.7,1901,14.06,73090.3,-3.03,-3.83,-3.83,0,*69
1505988352.9,1902,14.06,73078.0,-3.03,-3.79,-3.83,0,*6F
1505988354.1,1903,14.06,73092.8,-3.03,-3.83,-3.83,0,*6B
1505988355.3,1904,14.06,73090.0,-3.03,-3.83,-3.83,0,*6C
1505988356.5,1905,14.06,73086.8,-3.03,-3.91,-3.91,0,*6D
1505988357.73,1906,14.06,73084.0,-3.01,-3.79,-3.83,0,*69
1505988358.93,1907,14.06,73098.3,-3.03,-3.79,-3.83,0,*6A
1505988360.14,1908,14.06,73084.8,-3.05,-3.95,-3.95,0,*66
1505988361.35,1909,14.06,73070.0,-3.03,-3.91,-3.91,0,*61
1505988362.58,1910,14.06,73078.8,-3.01,-3.83,-3.91,0,*68
1505988363.78,1911,14.06,73078.0,-3.03,-3.83,-3.83,0,*68
1505988364.98,1912,14.06,73048.5,-3.03,-3.79,-3.83,0,*6E
1505988366.18,1913,14.06,73056.8,-3.03,-3.83,-3.91,0,*69
1505988367.38,1914,14.06,73116.0,-3.03,-3.83,-3.91,0,*6E
1505988368.58,1915,14.06,73078.8,-3.03,-3.95,-3.95,0,*6C
1505988369.78,1916,14.06,73076.8,-3.03,-3.91,-3.83,0,*6C
1505988370.98,1917,14.06,73082.3,-3.03,-3.91,-3.83,0,*6D
1505988372.19,1918,14.06,73082.0,-3.05,-3.87,-3.87,0,*67
1505988373.44,1919,14.06,73084.5,-3.05,-4.01,-3.95,0,*6C
1505988374.63,1920,14.06,73078.5,-3.03,-3.95,-4.05,0,*64
1505988375.84,1921,14.06,73078.8,-3.03,-3.91,-3.91,0,*6B
1505988377.05,1922,14.06,73080.8,-3.05,-3.87,-3.87,0,*6E
1505988378.28,1923,14.06,73144.0,-3.07,-3.91,-4.01,0,*63
1505988379.49,1924,14.06,73110.0,-3.05,-3.95,-3.95,0,*68
1505988380.71,1925,14.06,73116.5,-3.05,-3.87,-3.87,0,*69
1505988381.92,1926,14.06,73074.3,-3.05,-3.95,-3.83,0,*6D
1505988383.13,1927,14.06,73110.0,-3.03,-3.83,-3.79,0,*68
1505988384.38,1928,14.06,73106.3,-3.07,-4.01,-4.01,0,*66
1505988385.62,1929,14.06,73076.3,-3.05,-4.01,-3.95,0,*6F
1505988386.87,1930,14.06,73092.5,-3.07,-4.01,-4.01,0,*6F
1505988388.08,1931,14.06,73104.3,-3.05,-3.87,-3.95,0,*6F
1505988389.28,1932,14.06,73100.5,-3.07,-3.87,-3.91,0,*6A
1505988390.5,1933,14.06,73102.3,-3.05,-3.83,-3.87,0,*6A
1505988391.71,1934,14.06,73090.5,-3.05,-3.83,-3.87,0,*6D
1505988392.93,1935,14.06,73104.0,-3.05,-3.83,-3.87,0,*6C
1505988394.15,1936,14.06,73102.5,-3.05,-3.83,-3.87,0,*6F
1505988395.37,1937,14.06,73104.3,-3.05,-3.83,-3.87,0,*6E
1505988396.57,1938,14.06,73106.8,-3.07,-3.87,-3.91,0,*60
1505988397.79,1939,14.06,73106.3,-3.05,-3.79,-3.87,0,*65
1505988399.0,1940,14.06,73100.5,-3.05,-3.83,-3.83,0,*6A
1505988400.21,1941,14.06,73114.5,-3.03,-3.79,-3.79,0,*6D
1505988401.41,1942,14.06,73116.3,-3.03,-3.79,-3.75,0,*62
1505988402.61,1943,14.06,73112.0,-3.03,-3.75,-3.75,0,*6F
1505988403.84,1944,14.06,73118.5,-3.05,-3.79,-3.79,0,*6E
1505988405.07,1945,14.06,73122.5,-3.05,-3.71,-3.79,0,*67
1505988406.27,1946,14.06,73114.5,-3.07,-3.87,-3.83,0,*6A
1505988407.49,1947,14.06,73126.3,-3.05,-3.79,-3.79,0,*6D
1505988408.69,1948,14.06,73116.0,-3.03,-3.75,-3.75,0,*64
1505988409.89,1949,14.06,73114.0,-3.03,-3.79,-3.79,0,*65
1505988411.1,1950,14.06,73114.0,-3.03,-3.79,-3.75,0,*61
1505988412.32,1951,14.06,73124.8,-3.03,-3.67,-3.75,0,*6F
1505988413.52,1952,14.06,73116.8,-3.03,-3.79,-3.79,0,*6F
1505988414.72,1953,14.06,73110.8,-3.03,-3.79,-3.79,0,*6E
1505988415.92,1954,14.06,73108.0,-3.03,-3.79,-3.79,0,*69
1505988417.13,1955,14.06,73112.0,-3.03,-3.79,-3.79,0,*68
1505988418.33,1956,14.06,73124.0,-3.03,-3.75,-3.75,0,*6B
1505988419.53,1957,14.06,73112.5,-3.03,-3.79,-3.79,0,*6A
1505988420.74,1958,14.06,73108.5,-3.03,-3.75,-3.79,0,*69
1505988421.94,1959,14.06,73122.3,-3.03,-3.75,-3.75,0,*64
1505988423.17,1960,14.06,73110.3,-3.03,-3.67,-3.67,0,*6E
1505988424.39,1961,14.06,73108.8,-3.03,-3.79,-3.63,0,*64
1505988425.63,1962,14.06,73118.8,-3.03,-3.67,-3.67,0,*6C
1505988426.83,1963,14.06,73126.8,-3.03,-3.79,-3.75,0,*61
1505988428.03,1964,14.06,73120.3,-3.03,-3.75,-3.75,0,*6A
1505988429.24,1965,14.06,73118.5,-3.03,-3.75,-3.79,0,*67
1505988430.44,1966,14.06,73124.0,-3.03,-3.79,-3.75,0,*64
1505988431.69,1967,14.06,73114.8,-3.01,-3.75,-3.67,0,*68
1505988432.92,1968,14.06,73112.0,-3.03,-3.67,-3.67,0,*66
1505988434.18,1969,14.06,73114.8,-3.01,-3.67,-3.67,0,*65
1505988435.44,1970,14.06,73108.8,-3.01,-3.67,-3.67,0,*6D
1505988436.65,1971,14.06,73100.5,-3.03,-3.79,-3.75,0,*62
1505988437.85,1972,14.06,73106.3,-3.03,-3.75,-3.75,0,*6D
1505988439.09,1973,14.06,73110.8,-3.03,-3.67,-3.67,0,*6C
1505988440.32,1974,14.06,73106.0,-3.03,-3.67,-3.67,0,*6B
1505988441.52,1975,14.06,73098.5,-3.03,-3.79,-3.79,0,*6A
1505988442.72,1976,14.06,73092.5,-3.03,-3.79,-3.79,0,*69
1505988443.95,1977,14.06,73098.0,-3.01,-3.79,-3.79,0,*6A
1505988445.18,1978,14.06,73108.0,-3.01,-3.79,-3.79,0,*65
1505988446.38,1979,14.06,73120.8,-3.03,-3.83,-3.83,0,*66
1505988447.58,1980,14.06,73122.5,-3.03,-3.91,-3.83,0,*63
1505988448.79,1981,14.06,73100.8,-3.03,-3.91,-3.91,0,*61
1505988449.99,1982,14.06,73082.5,-3.03,-3.91,-3.95,0,*66
1505988451.18,1983,14.06,73094.3,-3.03,-4.05,-4.05,0,*63
1505988452.37,1984,14.06,73076.8,-3.03,-4.05,-4.05,0,*64
1505988453.57,1985,14.06,73080.3,-3.03,-4.05,-4.09,0,*69
1505988454.76,1986,14.06,73090.0,-3.03,-4.05,-3.95,0,*68
1505988455.96,1987,14.06,73076.5,-3.03,-3.95,-4.05,0,*69
1505988457.17,1988,14.06,73084.8,-3.05,-3.95,-3.95,0,*6E
1505988458.39,1989,14.06,73096.0,-3.05,-3.95,-3.95,0,*6F
1505988459.6,1990,14.06,73074.8,-3.05,-3.87,-3.95,0,*64
1505988460.82,1991,14.06,73096.8,-3.05,-3.95,-3.87,0,*65
1505988462.04,1992,14.06,73094.0,-3.05,-3.95,-3.95,0,*65
1505988463.26,1993,14.06,73096.0,-3.07,-4.01,-3.91,0,*68
1505988464.47,1994,14.06,73090.5,-3.07,-3.91,-3.91,0,*61
1505988465.68,1995,14.06,73090.5,-3.05,-3.87,-3.95,0,*61
1505988466.89,1996,14.06,73098.8,-3.05,-3.87,-3.95,0,*62
1505988468.11,1997,14.06,73096.8,-3.05,-3.87,-3.87,0,*60
1505988469.35,1998,14.06,73106.8,-3.07,-4.01,-4.01,0,*6D
1505988470.55,1999,14.06,73088.8,-3.07,-4.05,-4.05,0,*6C
1505988471.76,2000,14.06,73100.0,-3.05,-4.13,-4.13,0,*64
1505988472.96,2001,14.06,73074.0,-3.07,-4.09,-4.13,0,*6C
1505988474.17,2002,14.06,73084.8,-3.05,-4.09,-4.09,0,*66
1505988475.36,2003,14.06,73090.3,-3.07,-4.13,-4.05,0,*62
1505988476.56,2004,14.06,73088.5,-3.07,-4.13,-4.13,0,*62
1505988477.75,2005,14.06,73100.5,-3.07,-4.13,-4.13,0,*63
1505988479.02,2006,14.06,73098.0,-3.05,-4.01,-4.01,0,*62
1505988480.24,2007,14.06,73092.8,-3.07,-4.05,-4.01,0,*65
1505988481.45,2008,14.06,73096.3,-3.07,-4.05,-4.01,0,*6A
1505988482.65,2009,14.06,73094.0,-3.07,-4.13,-4.05,0,*68
1505988483.86,2010,14.06,73098.3,-3.07,-4.05,-4.01,0,*63
1505988485.11,2011,14.06,73076.0,-3.07,-4.01,-4.01,0,*66
1505988486.36,2012,14.06,73088.0,-3.05,-4.01,-3.95,0,*6D
1505988487.56,2013,14.06,73086.5,-3.07,-3.91,-3.91,0,*64
1505988488.76,2014,14.06,73092.0,-3.07,-3.91,-3.91,0,*63
1505988489.97,2015,14.06,73094.3,-3.07,-3.91,-3.91,0,*62
1505988491.16,2016,14.06,73082.0,-3.07,-3.91,-3.87,0,*66
1505988492.36,2017,14.06,73092.5,-3.07,-3.91,-3.87,0,*67
1505988493.58,2018,14.06,73082.5,-3.05,-3.87,-3.83,0,*69
1505988494.79,2019,14.06,73086.5,-3.05,-3.87,-3.83,0,*68
1505988496.0,2020,14.06,73094.8,-3.05,-3.87,-3.83,0,*62
1505988497.2,2021,14.06,73094.0,-3.07,-3.91,-3.87,0,*62
1505988498.4,2022,14.06,73102.0,-3.07,-3.91,-3.87,0,*61
1505988499.6,2023,14.06,73090.3,-3.07,-3.87,-3.91,0,*60
1505988500.8,2024,14.06,73062.8,-3.07,-3.91,-3.91,0,*60
1505988502.01,2025,14.06,73086.3,-3.07,-3.91,-3.91,0,*61
1505988503.23,2026,14.06,73076.0,-3.07,-4.01,-3.91,0,*6C
1505988504.43,2027,14.06,73078.5,-3.07,-3.91,-3.91,0,*63
1505988505.64,2028,14.06,73088.3,-3.07,-3.91,-3.91,0,*6C
1505988506.83,2029,14.06,73090.3,-3.07,-3.87,-3.91,0,*6A
1505988508.06,2030,14.06,73100.5,-3.07,-3.91,-4.01,0,*6B
1505988509.29,2031,14.06,73086.3,-3.07,-4.01,-3.91,0,*6A
1505988510.49,2032,14.06,73088.0,-3.07,-3.91,-3.91,0,*67
1505988511.69,2033,14.06,73084.5,-3.07,-3.91,-3.91,0,*66
1505988512.89,2034,14.06,73098.0,-3.07,-3.91,-3.87,0,*66